Miscellaneous Local Product
Issued by NWS Hastings, NE

Home | Current Version | Previous Version | Graphics & Text | Print | Product List | Glossary On
Versions: 1 2 3 4 5 6 7 8 9 10 11 12 13 14 15 16 17 18 19 20 21 22 23 24 25 26 27 28 29 30 31 32 33 34 35 36 37 38 39 40 41 42 43 44 45 46 47 48 49 50
000
AXUS43 KGID 291902
MISGRI

GID CWA HOURLY WEATHER ROUNDUP
NATIONAL WEATHER SERVICE HASTINGS NE
200 PM CDT MON JUN 29 2015

NOTE: "FAIR" INDICATES FEW OR NO CLOUDS BELOW 12,000 FEET WITH NO
SIGNIFICANT WEATHER AND/OR OBSTRUCTIONS TO VISIBILITY.

...SOUTH CENTRAL NEBRASKA...

CITY           SKY/WX    TMP DP  RH WIND       PRES   REMARKS
GRAND ISLAND   SUNNY     86  57  37 NW12      30.02F
HASTINGS       SUNNY     84  59  42 N12       30.02F
KEARNEY        SUNNY     88  55  33 N12       30.02F
ORD            SUNNY     87  57  35 NW12      30.00F
YORK           SUNNY     82  59  44 N7        30.00F
AURORA         SUNNY     83  57  39 N12       30.01S
LEXINGTON      SUNNY     91  56  30 NW9G18    30.04F
HOLDREGE       SUNNY     85  56  36 NW7       30.04F
HEBRON         SUNNY     83  56  40 NW5       30.00F

...NEBRASKA PANHANDLE...

CITY           SKY/WX    TMP DP  RH WIND       PRES   REMARKS
CHADRON        SUNNY     88  59  37 NE6       30.10S
ALLIANCE       SUNNY     84  57  39 VRB6      30.14S
SCOTTSBLUFF    SUNNY     87  53  31 VRB3      30.14F
SIDNEY         PTSUNNY   81  61  50 NW5       30.19F

...WESTERN AND NORTH CENTRAL NEBRASKA...

CITY           SKY/WX    TMP DP  RH WIND       PRES   REMARKS
VALENTINE      SUNNY     87  59  38 N9        30.04F
AINSWORTH      SUNNY     84  60  43 N9        30.05S
ONEILL         SUNNY     84  61  45 NW9       30.01S
BROKEN BOW     SUNNY     87  57  35 N8        30.03F
IMPERIAL       PTSUNNY   84  57  39 N6        30.11F
NORTH PLATTE   SUNNY     90  57  32 NW5       30.05F
MCCOOK         MOSUNNY   87  56  34 CALM      30.06F

...EASTERN NEBRASKA...

CITY           SKY/WX    TMP DP  RH WIND       PRES   REMARKS
NORFOLK        SUNNY     84  60  44 N13       29.97F
SO SIOUX CITY  SUNNY     84  60  44 VRB6      29.93F
TEKAMAH        SUNNY     87  62  43 NW10      29.94S
COLUMBUS       SUNNY    N/A N/A N/A MISG        N/A
ALBION         SUNNY     83  53  35 NW9       30.00F
OMAHA EPPLEY   CLOUDY    85  62  46 N12       29.94F
OFFUTT AFB     MOSUNNY   83  64  52 NW9       29.93F
MILLARD        MOSUNNY   84  62  48 NW7       29.94F
LINCOLN        MOSUNNY   87  58  37 NW7       29.97F
NEBRASKA CITY  PTSUNNY   84  50  31 NW10G17   29.95F
BEATRICE       SUNNY     84  62  47 NW12      29.98S
FALLS CITY     MOSUNNY   85  63  47 NW13G18   29.94S

...NORTHERN KANSAS...

CITY           SKY/WX    TMP DP  RH WIND       PRES   REMARKS
GOODLAND       MOSUNNY   88  52  29 SE6       30.13F
HILL CITY      SUNNY     93  51  23 CALM      30.04F HX  90
NORTON         CLEAR     91  46  21 NW7       30.04S
PHILLIPSBURG   SUNNY     91  52  25 CALM      30.01F
SMITH CENTER   SUNNY     90  54  29 NW7       30.01F
HAYS           SUNNY     91  54  27 NW9       30.04S
RUSSELL        SUNNY     90  54  29 N9        30.01F
CONCORDIA      SUNNY     85  58  39 NW12      30.00F
SALINA         SUNNY     88  55  32 VRB7      30.00F
TOPEKA         MOSUNNY   86  63  45 N9        29.96S



USA.gov is the U.S. government's official web portal to all federal, state and local government web resources and services.